Weather History for Staverton, United Kingdom

Change the Weather History Date:

Thursday, August 1, 2013

  Actual Average Record
Temperature  
Mean Temperature 76 °F -  
Max Temperature 89 °F 69 °F 89 °F (2013)
Min Temperature 64 °F 59 °F 53 °F (2001)
Cooling Degree Days 12    
Growing Degree Days 26 (Base 50)    
Moisture  
Dew Point 61 °F    
Average Humidity 56    
Maximum Humidity 88    
Minimum Humidity 31    
Precipitation  
Precipitation 0.00 in - - ()
Sea Level Pressure  
Sea Level Pressure 29.74 in    
Wind  
Wind Speed 7 mph ()    
Max Wind Speed 17 mph    
Max Gust Speed -    
Visibility 6.2 miles    
Events      
Averages and records for this station are not official NWS values.
T = Trace of Precipitation, MM = Missing Value Source: Averaged Metar Reports

Daily Weather History Graph

Daily Weather History Graph

Search for Another Location

Airport:

Trip Planner

Search our weather history database for the weather conditions in past years. The results will help you decide how hot, cold, wet, or windy it might be!

Date:

Astronomy

Aug. 01, 2013 Rise Set
Actual Time 5:30 AM BST 8:57 PM BST
Civil Twilight 4:49 AM BST 9:38 PM BST
Nautical Twilight 3:54 AM BST 10:33 PM BST
Astronomical Twilight 2:34 AM BST 11:51 PM BST
Moon 12:54 AM BST (8/1) 4:58 PM BST (8/1)
Length of Visible Light 16h 49m
Length of Day
15h 26m
Waning Crescent, 25% of the Moon is Illuminated
Aug 1
Waning Crescent
Aug 6
New
Aug 14
First Quarter
Aug 21
Full
Aug 28
Last Quarter

Hourly Weather History & Observations

Time (BST) Temp. Heat Index Dew Point Humidity Pressure Visibility Wind Dir Wind Speed Gust Speed Precip Events Conditions
12:20 AM 66.2 °F - 60.8 °F 83% 29.89 in 6.2 mi South 6.9 mph - N/A   Mostly Cloudy
5:20 AM 64.4 °F - 60.8 °F 88% 29.86 in 6.2 mi South 2.3 mph - N/A   Mostly Cloudy
6:20 AM 64.4 °F - 60.8 °F 88% 29.83 in 6.2 mi Calm Calm - N/A   Mostly Cloudy
6:50 AM 64.4 °F - 60.8 °F 88% 29.83 in 6.2 mi South 3.5 mph - N/A   Mostly Cloudy
7:20 AM 66.2 °F - 60.8 °F 83% 29.83 in 6.2 mi SE 2.3 mph - N/A   Mostly Cloudy
7:50 AM 68.0 °F - 60.8 °F 78% 29.83 in 6.2 mi SSE 3.5 mph - N/A   Scattered Clouds
8:20 AM 68.0 °F - 60.8 °F 78% 29.80 in 6.2 mi SSE 6.9 mph - N/A   Scattered Clouds
9:20 AM 71.6 °F - 62.6 °F 73% 29.80 in 6.2 mi SE 4.6 mph - N/A   Scattered Clouds
9:50 AM 73.4 °F - 62.6 °F 69% 29.77 in 6.2 mi SE 4.6 mph - N/A   Partly Cloudy
10:20 AM 75.2 °F - 62.6 °F 65% 29.77 in 6.2 mi SE 4.6 mph - N/A   Partly Cloudy
10:50 AM 77.0 °F - 64.4 °F 65% 29.77 in 6.2 mi SE 9.2 mph - N/A   Partly Cloudy
11:20 AM 80.6 °F 82.3 °F 64.4 °F 58% 29.74 in 6.2 mi SSE 10.4 mph - N/A   Partly Cloudy
11:50 AM 82.4 °F 83.9 °F 64.4 °F 54% 29.74 in 6.2 mi South 10.4 mph - N/A   Partly Cloudy
12:20 PM 84.2 °F 85.0 °F 62.6 °F 48% 29.71 in 6.2 mi South 11.5 mph - N/A   Partly Cloudy
12:50 PM 86.0 °F 86.6 °F 62.6 °F 45% 29.71 in 6.2 mi SSE 12.7 mph - N/A   Partly Cloudy
1:20 PM 86.0 °F 86.6 °F 62.6 °F 45% 29.71 in 6.2 mi SSW 9.2 mph - N/A   Partly Cloudy
1:50 PM 86.0 °F 86.6 °F 62.6 °F 45% 29.68 in 6.2 mi SSE 10.4 mph - N/A   Partly Cloudy
2:20 PM 87.8 °F 87.6 °F 60.8 °F 40% 29.68 in 6.2 mi SSW 13.8 mph - N/A   Partly Cloudy
2:50 PM 89.6 °F 87.7 °F 55.4 °F 31% 29.68 in 6.2 mi SSE 13.8 mph - N/A   Partly Cloudy
3:20 PM 89.6 °F 88.1 °F 57.2 °F 33% 29.68 in 6.2 mi South 12.7 mph - N/A   Partly Cloudy
3:50 PM 89.6 °F 88.1 °F 57.2 °F 33% 29.65 in 6.2 mi SSE 13.8 mph - N/A   Partly Cloudy
4:20 PM 89.6 °F 88.1 °F 57.2 °F 33% 29.65 in - South 16.1 mph - N/A   Clear
4:50 PM 87.8 °F 87.6 °F 60.8 °F 40% 29.65 in - SSE 17.3 mph - N/A   Clear
5:20 PM 87.8 °F 87.6 °F 60.8 °F 40% 29.65 in - South 15.0 mph - N/A   Clear
5:50 PM 87.8 °F 87.1 °F 59.0 °F 38% 29.65 in - South 13.8 mph - N/A   Clear
6:20 PM 86.0 °F 84.9 °F 57.2 °F 37% 29.65 in - SSE 15.0 mph - N/A   Clear
6:50 PM 86.0 °F 85.4 °F 59.0 °F 40% 29.65 in - South 15.0 mph - N/A   Clear